Time,TemperatureF,DewpointF,PressureIn,WindDirection,WindDirectionDegrees,WindSpeedMPH,WindSpeedGustMPH,Humidity,HourlyPrecipIn,Conditions,Clouds,dailyrainin,SoftwareType,DateUTC
2013-06-16 00:09:00,81.6,75.0,30.03,NNE,33,0.0,0.0,81,0.00,,,0.00,weatherlink.com 1.10,2013-06-16 04:09:00,
2013-06-16 00:24:00,80.9,75.0,30.03,NNE,33,0.0,0.0,82,0.00,,,0.00,weatherlink.com 1.10,2013-06-16 04:24:00,
2013-06-16 00:39:00,80.2,75.0,30.03,NNE,32,0.0,0.0,84,0.00,,,0.00,weatherlink.com 1.10,2013-06-16 04:39:00,
2013-06-16 00:54:00,79.8,75.0,30.03,NNE,33,0.0,0.0,84,0.00,,,0.00,weatherlink.com 1.10,2013-06-16 04:54:00,
2013-06-16 01:09:00,79.2,75.0,30.03,NNE,33,0.0,0.0,86,0.00,,,0.00,weatherlink.com 1.10,2013-06-16 05:09:00,
2013-06-16 01:24:00,79.1,75.0,30.03,NNE,33,0.0,0.0,87,0.00,,,0.00,weatherlink.com 1.10,2013-06-16 05:24:00,
2013-06-16 01:39:00,78.9,76.0,30.04,NNE,33,0.0,0.0,89,0.00,,,0.00,weatherlink.com 1.10,2013-06-16 05:39:00,
2013-06-16 01:54:00,78.6,75.0,30.03,NE,49,0.0,0.0,89,0.00,,,0.00,weatherlink.com 1.10,2013-06-16 05:54:00,
2013-06-16 02:09:00,78.2,75.0,30.03,NE,50,0.0,0.0,89,0.00,,,0.00,weatherlink.com 1.10,2013-06-16 06:09:00,
2013-06-16 02:24:00,78.1,75.0,30.03,NE,49,0.0,0.0,90,0.00,,,0.00,weatherlink.com 1.10,2013-06-16 06:24:00,
2013-06-16 02:39:00,77.8,75.0,30.02,NE,49,0.0,0.0,90,0.00,,,0.00,weatherlink.com 1.10,2013-06-16 06:39:00,
2013-06-16 02:54:00,77.7,75.0,30.02,NE,50,0.0,0.0,91,0.00,,,0.00,weatherlink.com 1.10,2013-06-16 06:54:00,
2013-06-16 03:09:00,77.5,75.0,30.02,NE,50,0.0,0.0,91,0.00,,,0.00,weatherlink.com 1.10,2013-06-16 07:09:00,
2013-06-16 03:24:00,77.3,75.0,30.01,NE,49,0.0,0.0,91,0.00,,,0.00,weatherlink.com 1.10,2013-06-16 07:24:00,
2013-06-16 03:40:00,76.9,74.0,30.01,NE,49,0.0,0.0,91,0.00,,,0.00,weatherlink.com 1.10,2013-06-16 07:40:00,
2013-06-16 03:55:00,77.0,75.0,30.01,ENE,77,0.0,0.0,92,0.00,,,0.00,weatherlink.com 1.10,2013-06-16 07:55:00,
2013-06-16 04:10:00,77.0,75.0,30.01,ENE,76,0.0,0.0,92,0.00,,,0.00,weatherlink.com 1.10,2013-06-16 08:10:00,
2013-06-16 04:25:00,76.7,74.0,30.01,ENE,76,0.0,0.0,92,0.00,,,0.00,weatherlink.com 1.10,2013-06-16 08:25:00,
2013-06-16 04:40:00,76.5,74.0,30.01,ENE,77,0.0,0.0,92,0.00,,,0.00,weatherlink.com 1.10,2013-06-16 08:40:00,
2013-06-16 04:55:00,76.3,74.0,30.01,ENE,77,0.0,0.0,93,0.00,,,0.00,weatherlink.com 1.10,2013-06-16 08:55:00,
2013-06-16 05:10:00,76.2,74.0,30.02,ENE,77,0.0,0.0,93,0.00,,,0.00,weatherlink.com 1.10,2013-06-16 09:10:00,
2013-06-16 05:25:00,75.9,74.0,30.02,ENE,77,0.0,0.0,94,0.00,,,0.00,weatherlink.com 1.10,2013-06-16 09:25:00,
2013-06-16 05:40:00,76.1,74.0,30.02,ENE,76,0.0,0.0,94,0.00,,,0.00,weatherlink.com 1.10,2013-06-16 09:40:00,
2013-06-16 05:55:00,75.9,74.0,30.03,ENE,77,0.0,0.0,94,0.00,,,0.00,weatherlink.com 1.10,2013-06-16 09:55:00,
2013-06-16 06:10:00,75.7,74.0,30.03,ENE,76,0.0,0.0,94,0.00,,,0.00,weatherlink.com 1.10,2013-06-16 10:10:00,
2013-06-16 06:25:00,75.6,74.0,30.03,East,79,0.0,0.0,95,0.00,,,0.00,weatherlink.com 1.10,2013-06-16 10:25:00,
2013-06-16 06:40:00,75.5,74.0,30.03,East,79,0.0,0.0,95,0.00,,,0.00,weatherlink.com 1.10,2013-06-16 10:40:00,
2013-06-16 06:55:00,75.6,74.0,30.04,East,79,0.0,0.0,95,0.00,,,0.00,weatherlink.com 1.10,2013-06-16 10:55:00,
2013-06-16 07:10:00,75.8,74.0,30.04,East,79,0.0,0.0,95,0.00,,,0.00,weatherlink.com 1.10,2013-06-16 11:10:00,
2013-06-16 07:25:00,76.5,75.0,30.04,ESE,113,0.0,1.0,95,0.00,,,0.00,weatherlink.com 1.10,2013-06-16 11:25:00,
2013-06-16 07:40:00,77.7,76.0,30.04,East,100,0.0,2.0,94,0.00,,,0.00,weatherlink.com 1.10,2013-06-16 11:40:00,
2013-06-16 07:55:00,79.0,76.0,30.05,ESE,116,0.0,3.0,91,0.00,,,0.00,weatherlink.com 1.10,2013-06-16 11:55:00,
2013-06-16 08:10:00,79.8,76.0,30.05,ESE,108,0.0,2.0,89,0.00,,,0.00,weatherlink.com 1.10,2013-06-16 12:10:00,
2013-06-16 08:25:00,81.8,77.0,30.05,East,100,0.0,0.0,86,0.00,,,0.00,weatherlink.com 1.10,2013-06-16 12:25:00,
2013-06-16 08:40:00,82.4,78.0,30.05,East,91,0.0,3.0,85,0.00,,,0.00,weatherlink.com 1.10,2013-06-16 12:40:00,
2013-06-16 08:55:00,82.6,77.0,30.05,East,87,0.0,3.0,84,0.00,,,0.00,weatherlink.com 1.10,2013-06-16 12:55:00,
2013-06-16 09:10:00,84.4,78.0,30.06,ENE,66,0.0,3.0,81,0.00,,,0.00,weatherlink.com 1.10,2013-06-16 13:10:00,
2013-06-16 09:25:00,85.4,78.0,30.06,SE,138,1.0,2.0,78,0.00,,,0.00,weatherlink.com 1.10,2013-06-16 13:25:00,
2013-06-16 09:40:00,86.5,78.0,30.06,East,98,1.0,3.0,75,0.00,,,0.00,weatherlink.com 1.10,2013-06-16 13:40:00,
2013-06-16 09:55:00,87.0,79.0,30.06,ESE,103,3.0,4.0,76,0.00,,,0.00,weatherlink.com 1.10,2013-06-16 13:55:00,
2013-06-16 10:10:00,87.7,79.0,30.05,East,86,1.0,3.0,74,0.00,,,0.00,weatherlink.com 1.10,2013-06-16 14:10:00,
2013-06-16 10:25:00,88.8,78.0,30.05,SSE,158,1.0,4.0,71,0.00,,,0.00,weatherlink.com 1.10,2013-06-16 14:25:00,
2013-06-16 10:41:00,90.4,78.0,30.05,East,92,2.0,3.0,68,0.00,,,0.00,weatherlink.com 1.10,2013-06-16 14:41:00,
2013-06-16 10:56:00,89.6,78.0,30.05,SW,236,0.0,2.0,68,0.00,,,0.00,weatherlink.com 1.10,2013-06-16 14:56:00,
2013-06-16 11:11:00,90.0,78.0,30.05,SE,125,0.0,3.0,68,0.00,,,0.00,weatherlink.com 1.10,2013-06-16 15:11:00,
2013-06-16 11:26:00,90.9,77.0,30.05,ESE,113,1.0,3.0,64,0.00,,,0.00,weatherlink.com 1.10,2013-06-16 15:26:00,
2013-06-16 11:41:00,90.7,76.0,30.05,SSE,160,2.0,4.0,63,0.00,,,0.00,weatherlink.com 1.10,2013-06-16 15:41:00,
2013-06-16 11:56:00,91.0,77.0,30.05,SSW,193,2.0,5.0,64,0.00,,,0.00,weatherlink.com 1.10,2013-06-16 15:56:00,
2013-06-16 12:12:00,91.2,77.0,30.05,WSW,253,1.0,4.0,63,0.00,,,0.00,weatherlink.com 1.10,2013-06-16 16:12:00,
2013-06-16 12:26:00,92.7,79.0,30.05,SW,232,1.0,3.0,64,0.00,,,0.00,weatherlink.com 1.10,2013-06-16 16:26:00,
2013-06-16 12:41:00,91.4,79.0,30.05,North,349,2.0,2.0,67,0.00,,,0.00,weatherlink.com 1.10,2013-06-16 16:41:00,
2013-06-16 12:56:00,91.1,77.0,30.04,WNW,293,1.0,4.0,64,0.00,,,0.00,weatherlink.com 1.10,2013-06-16 16:56:00,
2013-06-16 13:11:00,91.3,76.0,30.05,West,267,4.0,6.0,62,0.00,,,0.00,weatherlink.com 1.10,2013-06-16 17:11:00,
2013-06-16 13:26:00,90.5,76.0,30.04,South,174,1.0,5.0,62,0.00,,,0.00,weatherlink.com 1.10,2013-06-16 17:26:00,
2013-06-16 13:41:00,91.6,77.0,30.04,SW,226,2.0,3.0,63,0.00,,,0.00,weatherlink.com 1.10,2013-06-16 17:41:00,
2013-06-16 13:56:00,93.7,78.0,30.04,South,170,1.0,3.0,60,0.00,,,0.00,weatherlink.com 1.10,2013-06-16 17:56:00,
2013-06-16 14:11:00,95.3,78.0,30.03,ENE,73,2.0,3.0,57,0.00,,,0.00,weatherlink.com 1.10,2013-06-16 18:11:00,
2013-06-16 14:26:00,94.4,77.0,30.03,WSW,245,0.0,4.0,58,0.00,,,0.00,weatherlink.com 1.10,2013-06-16 18:26:00,
2013-06-16 14:41:00,90.8,76.0,30.03,NW,316,1.0,2.0,63,0.00,,,0.00,weatherlink.com 1.10,2013-06-16 18:41:00,
2013-06-16 14:56:00,85.8,78.0,30.03,NW,308,0.0,2.0,77,0.04,,,0.04,weatherlink.com 1.10,2013-06-16 18:56:00,
2013-06-16 15:11:00,81.4,77.0,30.03,ESE,122,0.0,2.0,86,0.17,,,0.17,weatherlink.com 1.10,2013-06-16 19:11:00,
2013-06-16 15:26:00,78.8,76.0,30.03,North,351,2.0,4.0,90,0.41,,,0.41,weatherlink.com 1.10,2013-06-16 19:26:00,
2013-06-16 15:41:00,76.5,74.0,30.03,WNW,291,0.0,5.0,92,0.55,,,0.55,weatherlink.com 1.10,2013-06-16 19:41:00,
2013-06-16 15:56:00,76.4,75.0,30.02,NNW,338,1.0,2.0,94,0.74,,,0.79,weatherlink.com 1.10,2013-06-16 19:56:00,
2013-06-16 16:11:00,76.4,75.0,30.02,NW,321,0.0,1.0,94,0.65,,,0.85,weatherlink.com 1.10,2013-06-16 20:11:00,
2013-06-16 16:26:00,76.8,75.0,30.02,NNW,342,0.0,2.0,95,0.43,,,0.86,weatherlink.com 1.10,2013-06-16 20:26:00,
2013-06-16 16:41:00,76.2,74.0,30.02,WSW,252,0.0,1.0,94,0.30,,,0.86,weatherlink.com 1.10,2013-06-16 20:41:00,
2013-06-16 16:56:00,76.8,75.0,30.01,WSW,252,0.0,0.0,95,0.07,,,0.86,weatherlink.com 1.10,2013-06-16 20:56:00,
2013-06-16 17:11:00,79.3,78.0,30.00,WSW,254,1.0,3.0,95,0.00,,,0.86,weatherlink.com 1.10,2013-06-16 21:11:00,
2013-06-16 17:26:00,83.0,79.0,30.00,WSW,252,0.0,3.0,88,0.00,,,0.86,weatherlink.com 1.10,2013-06-16 21:26:00,
2013-06-16 17:41:00,84.7,80.0,30.00,WNW,300,0.0,4.0,85,0.00,,,0.86,weatherlink.com 1.10,2013-06-16 21:41:00,
2013-06-16 17:56:00,85.8,79.0,30.01,WSW,250,1.0,2.0,79,0.00,,,0.86,weatherlink.com 1.10,2013-06-16 21:56:00,
2013-06-16 18:11:00,85.8,79.0,30.01,West,262,0.0,3.0,79,0.00,,,0.86,weatherlink.com 1.10,2013-06-16 22:11:00,
2013-06-16 18:26:00,85.6,79.0,30.01,WNW,290,0.0,1.0,80,0.00,,,0.86,weatherlink.com 1.10,2013-06-16 22:26:00,
2013-06-16 18:41:00,85.1,78.0,30.00,WSW,242,1.0,5.0,79,0.00,,,0.86,weatherlink.com 1.10,2013-06-16 22:41:00,
2013-06-16 18:56:00,85.4,77.0,30.00,WSW,238,0.0,5.0,77,0.00,,,0.86,weatherlink.com 1.10,2013-06-16 22:56:00,
2013-06-16 19:11:00,84.9,77.0,30.01,WSW,255,0.0,2.0,78,0.00,,,0.86,weatherlink.com 1.10,2013-06-16 23:11:00,
2013-06-16 19:26:00,84.4,77.0,30.01,West,273,0.0,3.0,78,0.00,,,0.86,weatherlink.com 1.10,2013-06-16 23:26:00,
2013-06-16 19:41:00,83.8,77.0,30.01,WSW,252,0.0,2.0,79,0.00,,,0.86,weatherlink.com 1.10,2013-06-16 23:41:00,
2013-06-16 19:56:00,83.3,77.0,30.01,West,259,1.0,4.0,80,0.00,,,0.86,weatherlink.com 1.10,2013-06-16 23:56:00,
2013-06-16 20:11:00,82.7,76.0,30.01,NNW,334,1.0,2.0,81,0.00,,,0.86,weatherlink.com 1.10,2013-06-17 00:11:00,
2013-06-16 20:26:00,82.1,77.0,30.01,WSW,242,0.0,1.0,83,0.00,,,0.86,weatherlink.com 1.10,2013-06-17 00:26:00,
2013-06-16 20:41:00,81.6,76.0,30.02,WSW,248,0.0,1.0,84,0.00,,,0.86,weatherlink.com 1.10,2013-06-17 00:41:00,
2013-06-16 20:56:00,81.1,76.0,30.02,WSW,248,0.0,0.0,85,0.00,,,0.86,weatherlink.com 1.10,2013-06-17 00:56:00,
2013-06-16 21:11:00,81.2,76.0,30.02,WSW,248,0.0,0.0,84,0.00,,,0.86,weatherlink.com 1.10,2013-06-17 01:11:00,
2013-06-16 21:26:00,80.8,76.0,30.04,WSW,248,0.0,0.0,85,0.00,,,0.86,weatherlink.com 1.10,2013-06-17 01:26:00,
2013-06-16 21:41:00,80.4,76.0,30.04,WSW,248,0.0,0.0,85,0.00,,,0.86,weatherlink.com 1.10,2013-06-17 01:41:00,
2013-06-16 21:56:00,80.3,76.0,30.05,WSW,248,0.0,0.0,86,0.00,,,0.86,weatherlink.com 1.10,2013-06-17 01:56:00,
2013-06-16 22:11:00,80.1,76.0,30.06,WSW,248,0.0,0.0,87,0.00,,,0.86,weatherlink.com 1.10,2013-06-17 02:11:00,
2013-06-16 22:26:00,80.2,76.0,30.07,WSW,248,0.0,0.0,88,0.00,,,0.86,weatherlink.com 1.10,2013-06-17 02:26:00,
2013-06-16 22:41:00,80.9,76.0,30.09,ESE,111,4.0,6.0,84,0.00,,,0.86,weatherlink.com 1.10,2013-06-17 02:41:00,
2013-06-16 22:56:00,79.5,74.0,30.08,ESE,123,2.0,9.0,84,0.00,,,0.86,weatherlink.com 1.10,2013-06-17 02:56:00,
2013-06-16 23:11:00,78.6,74.0,30.07,East,81,1.0,3.0,86,0.00,,,0.86,weatherlink.com 1.10,2013-06-17 03:11:00,
2013-06-16 23:26:00,77.7,74.0,30.07,NNE,25,0.0,2.0,88,0.00,,,0.86,weatherlink.com 1.10,2013-06-17 03:26:00,
2013-06-16 23:41:00,77.1,74.0,30.07,NNE,15,0.0,0.0,89,0.00,,,0.86,weatherlink.com 1.10,2013-06-17 03:41:00,
2013-06-16 23:56:00,76.4,73.0,30.06,NNE,15,0.0,0.0,90,0.00,,,0.86,weatherlink.com 1.10,2013-06-17 03:56:00,